Tracking 20083 objects as of 8-Dec-2019
HD Live streaming from Space Station
objects crossing your sky now

RADUGA 20

Track RADUGA 20 now!
RADUGA 20 is classified as:


NORAD ID: 17611
Int'l Code: 1987-028A
Perigee: 36,939.5 km
Apogee: 37,154.5 km
Inclination: 16.4 °
Period: 1,500.6 minutes
Semi major axis: 43417 km
RCS: 2.0634 m2 (large)
Launch date: March 19, 1987
Source: Commonwealth of Independent States (former USSR) (CIS)
Launch site: TYURATAM MISSILE AND SPACE COMPLEX (TTMTR)
aabbcc
Your satellite tracking list
Your tracking list is empty




NASA's NSSDC Master Catalog

Two Line Element Set (TLE):
1 17611U 87028A   19341.45535400 -.00000105  00000-0  00000+0 0  9991
2 17611  16.3735 347.4003 0024762 107.2863 257.6941  0.95961807115424
Source of the keplerian elements: AFSPC